Home > Weather > Solingen > Past weeks

Flag for Germany Weather for the Past 2 Weeks in Solingen, North Rhine-Westphalia, Germany

Now
37 °F

Fog.


Feels Like: 37 °F
Forecast: 31 / 35 °F
Wind: 1 mph from Northeast

Location: Duesseldorf

Current Time: Feb 14, 2016 at 5:05:33 AM

Latest Report: Feb 14, 2016 at 4:20 AM


Visibility: 3 mi

Pressure: 29.03 "Hg

Humidity: 100%

Dew point: 37 °F

Location of SolingenLocation

Historic Weather in Solingen — Graph

°F

Solingen Temperature Yesterday

Maximum temperature yesterday: 41 °F (at 12:50 PM)
Minimum temperature yesterday: 27 °F (at 3:20 AM)
Average temperature yesterday: 35 °F

High & Low Weather Summary for the Past Weeks

 TemperatureHumidityPressure
High54 °F (Jan 31, 11:50 PM)100% (Jan 31, 6:20 PM)30.30 "Hg (Jan 31, 6:20 PM)
Low27 °F (Feb 13, 3:20 AM)57% (Feb 3, 1:50 PM)28.77 "Hg (Feb 9, 4:20 PM)
Average44 °F84%29.70 "Hg
* Reported Jan 30 4:20 AM — Feb 14 4:20 AM, Solingen, Weather by CustomWeather, © 2016

Note: Actual official high and low records may vary slightly from our data, if they occured in-between our weather recording intervals... More about our weather records

Advertising

Solingen Weather History for the Previous 24 Hours

 ConditionsComfort  
Time TempWeatherWind HumidityBarometerVisibility
4:20 AM
Sun, Feb 14
37 °FFog.1 mph100%29.03 "Hg3 mi
3:50 AM37 °FFog.3 mph100%29.03 "Hg3 mi
3:20 AM37 °FLight rain. Fog.5 mph100%29.03 "Hg3 mi
2:20 AM37 °FLight rain. Fog.5 mph100%29.00 "Hg3 mi
1:50 AM37 °FLight rain. Fog.5 mph100%29.00 "Hg3 mi
1:20 AM37 °FLight rain. Fog.5 mph100%29.03 "Hg3 mi
12:50 AM37 °FLight rain. Fog.6 mph100%29.03 "Hg3 mi
12:20 AM37 °FLight rain. Fog.7 mph100%29.03 "Hg3 mi
11:50 PM
Sat, Feb 13
37 °FLight rain. Passing clouds.9 mph93%29.03 "Hg4 mi
11:20 PM37 °FLight rain. Passing clouds.8 mph93%29.03 "Hg5 mi
10:50 PM37 °FLight rain. Passing clouds.8 mph93%29.03 "Hg5 mi
10:20 PM37 °FLight rain. Passing clouds.7 mph93%29.03 "Hg5 mi
9:50 PM37 °FLight rain. Passing clouds.8 mph93%29.03 "Hg6 mi
9:20 PM37 °FLight rain. Passing clouds.6 mph93%29.03 "Hg6 mi
8:50 PM37 °FLight rain. Partly cloudy.7 mph100%29.03 "HgN/A
8:20 PM37 °FLight rain. Passing clouds.7 mph93%29.06 "Hg6 mi
7:50 PM37 °FLight rain. Partly cloudy.7 mph93%29.06 "Hg6 mi
7:20 PM37 °FLight rain. Passing clouds.8 mph93%29.06 "Hg6 mi
6:50 PM37 °FLight rain. Passing clouds.8 mph93%29.09 "HgN/A
6:20 PM37 °FLight rain. Passing clouds.8 mph93%29.09 "HgN/A
5:50 PM37 °FLight rain. Passing clouds.9 mph93%29.09 "HgN/A
5:20 PM39 °FLight rain. Cloudy.9 mph87%29.09 "HgN/A
4:50 PM39 °FLight rain. Mostly cloudy.13 mph81%29.12 "HgN/A
4:20 PM39 °FLight rain. Partly sunny.12 mph81%29.12 "HgN/A
3:50 PM39 °FLight rain. Partly sunny.13 mph81%29.12 "HgN/A
3:20 PM41 °FLight rain. Mostly cloudy.14 mph76%29.15 "HgN/A
2:50 PM41 °FLight rain. Partly sunny.12 mph70%29.15 "HgN/A
2:20 PM41 °FPartly sunny.12 mph70%29.15 "HgN/A
1:50 PM41 °FBroken clouds.12 mph70%29.18 "HgN/A
1:20 PM41 °FPartly sunny.13 mph70%29.21 "HgN/A
12:50 PM41 °FSunny.14 mph70%29.21 "Hg10 mi
12:20 PM39 °FSunny.10 mph75%29.24 "Hg10 mi
11:50 AM39 °FPartly sunny.10 mph70%29.24 "HgN/A
11:20 AM39 °FPassing clouds.10 mph70%29.27 "HgN/A
10:50 AM39 °FSunny.12 mph75%29.27 "Hg10 mi
10:20 AM37 °FSunny.10 mph75%29.27 "Hg10 mi
9:50 AM36 °FPassing clouds.6 mph81%29.30 "HgN/A
9:20 AM32 °FSunny.2 mph93%29.30 "Hg10 mi
8:50 AM30 °FSunny.3 mph93%29.33 "Hg10 mi
8:20 AM28 °FSunny.2 mph100%29.33 "Hg10 mi
7:50 AM28 °FClear.2 mph93%29.33 "Hg10 mi
7:20 AM27 °FPassing clouds.3 mph100%29.33 "HgN/A
6:50 AM27 °FPassing clouds.2 mph100%29.36 "HgN/A
6:20 AM27 °FPassing clouds.5 mph93%29.36 "HgN/A
5:50 AM27 °FPassing clouds.No wind93%29.36 "HgN/A
5:20 AM28 °FPassing clouds.No wind93%29.36 "HgN/A
Weather by CustomWeather, © 2016

See weather overviewHow to use our weather pages